Flag for Germany Weather past 2 weeks in Bad Vilbel, Hesse, Germany

Now
34 °F

Overcast.


Feels Like: 31 °F
Forecast: 14 / 30 °F
Wind: 3 mph from Southeast

Location: Frankfurt / M-Flughafen

Current Time: Dec 27, 2014 at 4:14:16 AM

Latest Report: Dec 27, 2014 at 3:00 AM


Visibility: 8 mi

Pressure: 30.04 "Hg

Humidity: 97%

Dew point: 33 °F

Location of Bad VilbelLocation

Historic Weather in Bad Vilbel — Graph

°F

Bad Vilbel temperature yesterday

Maximum temperature yesterday: 41 °F (at 2:00 PM)
Minimum temperature yesterday: 32 °F (at 9:00 AM)
Average temperature yesterday: 36 °F

Past Weeks' High & Low Weather Summary

 TemperatureHumidityPressure
High57 °F (Dec 18, 9:00 PM)100% (Dec 13, 6:00 AM)30.49 "Hg (Dec 13, 6:00 AM)
Low32 °F (Dec 17, 4:00 AM)67% (Dec 12, 8:00 PM)29.62 "Hg (Dec 12, 6:00 PM)
Average43 °F87%30.09 "Hg
* Reported Dec 12 3:00 AM — Dec 27 3:00 AM, Bad Vilbel, Weather by CustomWeather, © 2014

Note: Actual official high and low records may vary slightly from our data, if they occured in-between our weather recording intervals... More about our weather records

Advertising

Bad Vilbel weather history for previous 24 hours

 ConditionsComfort  
Time TempWeatherWind HumidityBarometerVisibility
3:00 AM
Dec 27
34 °FOvercast.3 mph97%30.04 "Hg7 mi
2:00 AM34 °FOvercast.2 mph97%30.09 "Hg7 mi
1:00 AM33 °FOvercast.3 mph97%30.14 "Hg7 mi
12:00 AM32 °FOvercast.1 mph99%30.20 "Hg6 mi
11:00 PM
Dec 26
33 °FLow clouds.1 mph99%30.24 "Hg47 mi
9:00 PM34 °FLow clouds.2 mph99%30.31 "Hg11 mi
8:00 PM34 °FLight rain. Overcast.1 mph98%30.33 "Hg11 mi
7:00 PM34 °FOvercast.2 mph96%30.35 "Hg19 mi
6:00 PM36 °FPassing clouds.2 mph93%30.36 "Hg22 mi
5:00 PM38 °FPassing clouds.2 mph80%30.37 "Hg22 mi
3:00 PM39 °FOvercast.3 mph81%30.39 "Hg22 mi
2:00 PM41 °FPartly sunny.5 mph70%30.39 "Hg22 mi
1:00 PM40 °FPartly sunny.2 mph76%30.40 "Hg22 mi
12:00 PM38 °FPartly sunny.3 mph85%30.42 "Hg12 mi
11:00 AM38 °FPartly sunny.3 mph90%30.43 "Hg12 mi
9:00 AM32 °FPartly sunny.3 mph99%30.42 "Hg9 mi
8:00 AM35 °FPassing clouds.5 mph94%30.42 "Hg12 mi
7:00 AM34 °FOvercast.3 mph96%30.41 "Hg12 mi
6:00 AM34 °FPassing clouds.2 mph97%30.41 "Hg9 mi
5:00 AM34 °FPassing clouds.1 mph97%30.41 "Hg9 mi
Weather by CustomWeather, © 2014

See weather overviewHow to use our weather pages